Weather History for KMZH - September, 2012

Change the Weather History Date:

Thursday, September 27, 2012

  Actual Average Record
Temperature  
Mean Temperature 47 °F -  
Max Temperature 64 °F 64 °F 85 °F (1987)
Min Temperature 30 °F 39 °F 22 °F (1957)
Degree Days  
Heating Degree Days 18    
Moisture  
Dew Point 29 °F    
Average Humidity 60    
Maximum Humidity 93    
Minimum Humidity 21    
Precipitation  
Precipitation 0.00 in - - ()
Sea Level Pressure  
Sea Level Pressure 30.21 in    
Wind  
Wind Speed 0 mph (SE)    
Max Wind Speed 6 mph    
Max Gust Speed -    
Visibility 9 miles    
Events Fog    
Averages and records for this station are not official NWS values.
T = Trace of Precipitation, MM = Missing Value Source: NWS Daily Summary

Daily Weather History Graph

Daily Weather History Graph

Search for Another Location

Airport or City:

Trip Planner

Search our weather history database for the weather conditions in past years. The results will help you decide how hot, cold, wet, or windy it might be!

Date:

Astronomy

Sep. 27, 2012 Rise Set
Actual Time 7:05 AM CDT 6:57 PM CDT
Civil Twilight 6:35 AM CDT 7:27 PM CDT
Nautical Twilight 6:00 AM CDT 8:02 PM CDT
Astronomical Twilight 5:24 AM CDT 8:38 PM CDT
Moon 5:34 PM CDT (9/27) 4:28 AM CDT (9/27)
Length of Visible Light 12h 52m
Length of Day
11h 52m
Waxing Gibbous, 94% of the Moon is Illuminated
Sep 27
Waxing Gibbous
Sep 29
Full
Oct 8
Last Quarter
Oct 15
New
Oct 21
First Quarter

Hourly Weather History & Observations

Time (CDT) Temp. Windchill Dew Point Humidity Pressure Visibility Wind Dir Wind Speed Gust Speed Precip Events Conditions
12:11 AM 33.8 °F - 30.2 °F 87% 30.21 in 10.0 mi Calm Calm - N/A   Clear
12:31 AM 33.8 °F - 30.2 °F 87% 30.21 in 10.0 mi Calm Calm - N/A   Scattered Clouds
12:50 AM 33.8 °F - 30.2 °F 87% 30.22 in 10.0 mi Calm Calm - N/A   Scattered Clouds
1:11 AM 32.0 °F - 28.4 °F 87% 30.22 in 10.0 mi Calm Calm - N/A   Clear
1:31 AM 32.0 °F - 30.2 °F 93% 30.22 in 10.0 mi Calm Calm - N/A   Clear
1:51 AM 32.0 °F - 28.4 °F 87% 30.22 in 10.0 mi Calm Calm - N/A   Clear
2:11 AM 32.0 °F - 28.4 °F 87% 30.22 in 10.0 mi Calm Calm - N/A   Clear
2:31 AM 32.0 °F - 28.4 °F 87% 30.22 in 5.0 mi Calm Calm - N/A   Clear
2:50 AM 32.0 °F - 28.4 °F 87% 30.22 in 3.0 mi Calm Calm - N/A   Haze
3:10 AM 32.0 °F - 28.4 °F 87% 30.23 in 2.5 mi Calm Calm - N/A   Clear
3:30 AM 32.0 °F - 28.4 °F 87% 30.22 in 1.8 mi Calm Calm - N/A   Mist
3:51 AM 32.0 °F - 28.4 °F 87% 30.23 in 3.0 mi Calm Calm - N/A   Clear
4:11 AM 32.0 °F - 28.4 °F 87% 30.23 in 0.5 mi Calm Calm - N/A Fog Light Freezing Fog
4:31 AM 30.2 °F - 26.6 °F 86% 30.24 in 2.0 mi Calm Calm - N/A   Clear
4:51 AM 30.2 °F - 26.6 °F 86% 30.25 in 10.0 mi Calm Calm - N/A   Clear
5:11 AM 30.2 °F - 26.6 °F 86% 30.25 in 10.0 mi Calm Calm - N/A   Clear
5:31 AM 30.2 °F - 26.6 °F 86% 30.25 in 10.0 mi Calm Calm - N/A   Clear
5:51 AM 30.2 °F - 26.6 °F 86% 30.25 in 10.0 mi Calm Calm - N/A   Clear
6:11 AM 30.2 °F - 26.6 °F 86% 30.26 in 10.0 mi Calm Calm - N/A   Clear
6:31 AM 30.2 °F - 24.8 °F 80% 30.26 in 10.0 mi Calm Calm - N/A   Clear
6:51 AM 30.2 °F - 24.8 °F 80% 30.26 in 10.0 mi Calm Calm - N/A   Clear
7:11 AM 30.2 °F - 26.6 °F 86% 30.26 in 10.0 mi Calm Calm - N/A   Clear
7:31 AM 30.2 °F - 26.6 °F 86% 30.26 in 7.0 mi Calm Calm - N/A   Clear
7:51 AM 30.2 °F - 26.6 °F 86% 30.27 in 10.0 mi Calm Calm - N/A   Clear
8:11 AM 32.0 °F - 28.4 °F 87% 30.28 in 10.0 mi Calm Calm - N/A   Clear
8:31 AM 33.8 °F - 32.0 °F 93% 30.28 in 10.0 mi Calm Calm - N/A   Clear
8:51 AM 35.6 °F - 32.0 °F 87% 30.28 in 10.0 mi Calm Calm - N/A   Clear
9:10 AM 39.2 °F - 33.8 °F 81% 30.28 in 10.0 mi Calm Calm - N/A   Clear
9:31 AM 42.8 °F - 33.8 °F 70% 30.28 in 10.0 mi Calm Calm - N/A   Clear
9:51 AM 46.4 °F 45.2 °F 32.0 °F 57% 30.28 in 10.0 mi WSW 3.5 mph - N/A   Clear
10:11 AM 48.2 °F - 32.0 °F 54% 30.28 in 10.0 mi Calm Calm - N/A   Clear
10:30 AM 51.8 °F - 30.2 °F 44% 30.28 in 10.0 mi Calm Calm - N/A   Clear
10:51 AM 53.6 °F - 30.2 °F 41% 30.27 in 10.0 mi Calm Calm - N/A   Clear
11:11 AM 55.4 °F - 28.4 °F 36% 30.26 in 10.0 mi Calm Calm - N/A   Clear
11:31 AM 57.2 °F - 24.8 °F 29% 30.25 in 10.0 mi Calm Calm - N/A   Clear
11:51 AM 57.2 °F - 23.0 °F 27% 30.25 in 10.0 mi SE 3.5 mph - N/A   Clear
12:11 PM 59.0 °F - 23.0 °F 25% 30.24 in 10.0 mi Calm Calm - N/A   Clear
12:31 PM 59.0 °F - 24.8 °F 27% 30.24 in 10.0 mi Calm Calm - N/A   Clear
1:10 PM 60.8 °F - 26.6 °F 27% 30.22 in 10.0 mi Calm Calm - N/A   Clear
1:31 PM 60.8 °F - 26.6 °F 27% 30.21 in 10.0 mi Calm Calm - N/A   Clear
1:51 PM 62.6 °F - 26.6 °F 26% 30.19 in 10.0 mi North 3.5 mph - N/A   Clear
2:11 PM 62.6 °F - 28.4 °F 27% 30.19 in 10.0 mi ESE 4.6 mph - N/A   Clear
2:31 PM 64.4 °F - 28.4 °F 26% 30.18 in 10.0 mi East 5.8 mph - N/A   Clear
2:51 PM 64.4 °F - 26.6 °F 24% 30.18 in 10.0 mi Calm Calm - N/A   Clear
3:11 PM 64.4 °F - 26.6 °F 24% 30.18 in 10.0 mi SE 5.8 mph - N/A   Clear
3:30 PM 64.4 °F - 26.6 °F 24% 30.18 in 10.0 mi Calm Calm - N/A   Clear
3:52 PM 64.4 °F - 26.6 °F 24% 30.18 in 10.0 mi Calm Calm - N/A   Clear
4:11 PM 64.4 °F - 24.8 °F 22% 30.18 in 10.0 mi Calm Calm - N/A   Clear
4:31 PM 64.4 °F - 23.0 °F 21% 30.17 in 10.0 mi Calm Calm - N/A   Clear
4:51 PM 64.4 °F - 24.8 °F 22% 30.17 in 10.0 mi Calm Calm - N/A   Clear
5:11 PM 64.4 °F - 26.6 °F 24% 30.17 in 10.0 mi South 4.6 mph - N/A   Clear
5:30 PM 64.4 °F - 26.6 °F 24% 30.17 in 10.0 mi Calm Calm - N/A   Clear
5:52 PM 62.6 °F - 26.6 °F 26% 30.16 in 10.0 mi Calm Calm - N/A   Clear
6:11 PM 62.6 °F - 26.6 °F 26% 30.16 in 10.0 mi Calm Calm - N/A   Clear
6:31 PM 59.0 °F - 24.8 °F 27% 30.16 in 10.0 mi Calm Calm - N/A   Clear
6:51 PM 57.2 °F - 28.4 °F 33% 30.16 in 10.0 mi Calm Calm - N/A   Clear
7:11 PM 51.8 °F - 32.0 °F 47% 30.16 in 10.0 mi Calm Calm - N/A   Clear
7:31 PM 50.0 °F - 32.0 °F 50% 30.16 in 10.0 mi Calm Calm - N/A   Mostly Cloudy
7:51 PM 48.2 °F - 32.0 °F 54% 30.17 in 10.0 mi Calm Calm - N/A   Scattered Clouds
8:11 PM 46.4 °F - 32.0 °F 57% 30.17 in 10.0 mi Calm Calm - N/A   Clear
8:31 PM 46.4 °F - 33.8 °F 62% 30.16 in 10.0 mi Calm Calm - N/A   Clear
8:51 PM 44.6 °F - 33.8 °F 66% 30.16 in 10.0 mi Calm Calm - N/A   Clear
9:11 PM 44.6 °F - 33.8 °F 66% 30.16 in 10.0 mi Calm Calm - N/A   Clear
9:31 PM 42.8 °F - 33.8 °F 70% 30.16 in 10.0 mi Calm Calm - N/A   Clear
9:51 PM 42.8 °F - 33.8 °F 70% 30.16 in 10.0 mi Calm Calm - N/A   Clear
10:11 PM 41.0 °F - 33.8 °F 76% 30.16 in 10.0 mi Calm Calm - N/A   Clear
10:31 PM 41.0 °F - 33.8 °F 76% 30.16 in 10.0 mi Calm Calm - N/A   Clear
10:51 PM 41.0 °F - 33.8 °F 76% 30.16 in 10.0 mi Calm Calm - N/A   Clear
11:11 PM 41.0 °F - 33.8 °F 76% 30.16 in 10.0 mi Calm Calm - N/A   Clear
11:31 PM 39.2 °F - 33.8 °F 81% 30.16 in 10.0 mi Calm Calm - N/A   Clear
11:51 PM 39.2 °F - 33.8 °F 81% 30.16 in 10.0 mi Calm Calm - N/A   Clear